Flag for Germany Weather past 2 weeks in Bremerhaven, Bremen, Germany

Now
64 °F

Passing clouds.


Feels Like: 64 °F
Forecast: 58 / 69 °F
Wind: 7 mph from Southwest

Location: Nordholz

Current Time: Sep 1, 2015 at 1:50:03 AM

Latest Report: Sep 1, 2015 at 1:20 AM


Visibility: N/A

Pressure: 29.71 "Hg

Humidity: 100%

Dew point: 64 °F

Location of BremerhavenLocation

Historic Weather in Bremerhaven — Graph

°F

Bremerhaven temperature yesterday

Maximum temperature yesterday: 79 °F (at 4:20 PM)
Minimum temperature yesterday: 61 °F (at 12:20 AM)
Average temperature yesterday: 68 °F

Past Weeks' High & Low Weather Summary

 TemperatureHumidityPressure
High79 °F (Aug 31, 4:20 PM)100% (Aug 17, 8:20 AM)30.27 "Hg (Aug 17, 8:20 AM)
Low52 °F (Aug 29, 3:20 AM)34% (Aug 22, 3:20 PM)29.53 "Hg (Aug 24, 7:20 PM)
Average64 °F82%29.96 "Hg
* Reported Aug 17 12:20 AM — Sep 1 12:20 AM, Bremerhaven, Weather by CustomWeather, © 2015

Note: Actual official high and low records may vary slightly from our data, if they occured in-between our weather recording intervals... More about our weather records

Advertising

Bremerhaven weather history for previous 24 hours

 ConditionsComfort  
Time TempWeatherWind HumidityBarometerVisibility
12:20 AM
Tue, Sep 1
64 °FPartly cloudy.3 mph100%29.71 "HgN/A
11:20 PM
Mon, Aug 31
64 °FPartly cloudy.5 mph100%29.71 "HgN/A
10:20 PM66 °FPartly cloudy.2 mph94%29.71 "HgN/A
9:20 PM66 °FStrong thunderstorms. Fog.26 mph88%29.77 "Hg1 mi
8:48 PM72 °FThundershowers. Partly sunny.14 mph83%29.68 "HgN/A
8:20 PM73 °FPartly sunny.7 mph83%29.68 "HgN/A
8:00 PM73 °FBroken clouds.6 mph83%29.68 "HgN/A
7:20 PM75 °FBroken clouds.6 mph78%29.71 "HgN/A
6:20 PM77 °FPartly sunny.9 mph69%29.74 "HgN/A
5:20 PM79 °FScattered clouds.9 mph70%29.77 "HgN/A
4:20 PM79 °FScattered clouds.12 mph65%29.77 "HgN/A
3:20 PM77 °FScattered clouds.12 mph69%29.83 "HgN/A
2:20 PM75 °FScattered clouds.10 mph74%29.86 "HgN/A
1:20 PM73 °FPartly sunny.7 mph78%29.86 "HgN/A
12:20 PM70 °FFog.5 mph94%29.89 "Hg3 mi
11:20 AM66 °FFog.3 mph100%29.92 "Hg2 mi
10:20 AM63 °FRain. Fog.5 mph100%29.95 "Hg1 mi
9:49 AM63 °FRain. Fog.6 mph94%29.89 "Hg1 mi
9:20 AM63 °FRain. Fog.6 mph94%29.92 "Hg1 mi
8:20 AM63 °FLight rain. Fog.2 mph94%29.95 "Hg1 mi
7:20 AM61 °FLight rain. Fog.8 mph100%29.92 "Hg2 mi
6:20 AM63 °FFog.3 mph94%29.95 "Hg2 mi
5:20 AM63 °FFog.12 mph94%29.95 "Hg3 mi
4:20 AM63 °FPassing clouds.3 mph94%30.01 "Hg4 mi
3:20 AM63 °FPartly cloudy.6 mph94%30.01 "Hg4 mi
2:20 AM63 °FPassing clouds.7 mph94%30.01 "Hg4 mi
1:20 AM63 °FPassing clouds.7 mph94%30.01 "Hg4 mi
Weather by CustomWeather, © 2015

See weather overviewHow to use our weather pages